User: anonymous   Login
Location: Austin
(30.3000°N, 97.7500°W)
Time: 23:42:30
(UTC-05:00)
Language:

Cosmos 2297 - Orbit

View from above orbital plane
View from above orbital plane
View from above satellite
View from above satellite

Ground track
Ground track

The orbit is defined by the following mean orbital elements,

1 23404U          26156.60478375 +.00000000 +00000-0 -65252-4 0 00001
2 23404  71.0142 274.9702 0016972 219.6712 140.3170 14.13936653    01
Epoch (UTC): 05 June 2026 14:30:53
Eccentricity: 0.0016972
inclination: 71.0142°
perigee height: 834 km
apogee height: 858 km
right ascension of ascending node: 274.9702°
argument of perigee: 219.6712°
revolutions per day: 14.13936653
mean anomaly at epoch: 140.3170°

The dashed part of the orbit path shows where the satellite is in the earth's shadow,  

DLR